Orbital Elements at Epoch 2459200.5 (2020-Dec-17.0) TDB
Reference: JPL 29 (heliocentric ecliptic J2000)
Element | Value | Uncertainty (1-sigma) | Units |
e | .03589159986368012 | 4.868e-08 | |
a | 2.514371142251477 | 1.1147e-08 | au |
q | 2.424126339305003 | 1.1795e-07 | au |
i | 11.55077607339766 | 5.0151e-06 | deg |
node | 338.6094278298035 | 1.7238e-05 | deg |
peri | 213.6992283837864 | 6.3382e-05 | deg |
M | 126.310823788012 | 6.0608e-05 | deg |
tp | 2458689.547452184381 (2019-Jul-25.04745218) | 0.00024511 | TDB |
period | 1456.272009771191 3.99 | 9.684e-06 2.651e-08 | d yr |
n | .2472065641476987 | 1.6439e-09 | deg/d |
Q | 2.604615945197952 | 1.1547e-08 | au |
|
| | Orbit Determination Parameters
Additional Information
|